| time (UTC) | temp F | wind direction | speed MPH | gust MPH | rain 1hr in | rain 24hr in | rain mn in | humidity % | barometer mb |
| 20260902155019 | 70 | 341 | 2.0 | 4.0 | 0.00 | 0.01 | 0.01 | 56 | |
| 20260902154044 | 70 | 345 | 2.0 | 3.0 | 0.00 | 0.01 | 0.01 | 59 | |
| 20260902153020 | 70 | 356 | 3.0 | 4.0 | 0.00 | 0.01 | 0.01 | 58 | |
| 20260902152028 | 70 | 351 | 2.0 | 4.0 | 0.00 | 0.01 | 0.01 | 57 | |
| 20260902151021 | 70 | 347 | 2.0 | 4.0 | 0.00 | 0.01 | 0.01 | 54 | |
| 20260902150028 | 71 | 346 | 4.0 | 10.0 | 0.00 | 0.01 | 0.01 | 53 | |
| 20260902145019 | 71 | 344 | 3.0 | 6.0 | 0.00 | 0.01 | 0.01 | 54 | |
| 20260902144028 | 71 | 344 | 1.0 | 3.0 | 0.00 | 0.01 | 0.01 | 55 | |
| 20260902143020 | 71 | 351 | 2.0 | 6.0 | 0.00 | 0.01 | 0.01 | 55 | |
| 20260902142028 | 72 | 349 | 2.0 | 4.0 | 0.00 | 0.01 | 0.01 | 54 | |
| 20260902141021 | 71 | 342 | 2.0 | 4.0 | 0.00 | 0.01 | 0.01 | 57 | |
| 20260902140030 | 70 | 357 | 3.0 | 5.0 | 0.00 | 0.02 | 0.01 | 59 | |
| 20260902135020 | 72 | 329 | 2.0 | 6.0 | 0.00 | 0.02 | 0.01 | 57 | |
| 20260902134030 | 71 | 1 | 1.0 | 3.0 | 0.00 | 0.02 | 0.01 | 61 | |
| 20260902133020 | 71 | 343 | 2.0 | 4.0 | 0.00 | 0.02 | 0.01 | 61 | |
| 20260902132030 | 70 | 347 | 1.0 | 4.0 | 0.00 | 0.02 | 0.01 | 63 | |
| 20260902131020 | 69 | 354 | 2.0 | 4.0 | 0.00 | 0.02 | 0.01 | 67 | |
| 20260902130026 | 69 | 346 | 3.0 | 7.0 | 0.00 | 0.02 | 0.01 | 66 | |
| 20260902125020 | 70 | 345 | 3.0 | 7.0 | 0.00 | 0.02 | 0.01 | 67 | |
| 20260902124028 | 70 | 342 | 2.0 | 4.0 | 0.00 | 0.02 | 0.01 | 71 | |
| 20260902123021 | 69 | 3 | 2.0 | 7.0 | 0.00 | 0.02 | 0.01 | 70 | |
| 20260902122028 | 70 | 344 | 3.0 | 5.0 | 0.00 | 0.02 | 0.01 | 68 | |
| 20260902121022 | 72 | 6 | 1.0 | 5.0 | 0.00 | 0.02 | 0.01 | 67 | |
| 20260902120030 | 70 | 356 | 1.0 | 3.0 | 0.00 | 0.02 | 0.01 | 70 | |
| 20260902115020 | 71 | 349 | 1.0 | 3.0 | 0.00 | 0.02 | 0.01 | 68 | |
| 20260902114028 | 71 | 3 | 1.0 | 2.0 | 0.00 | 0.02 | 0.01 | 69 | |
| 20260902113021 | 70 | 44 | 1.0 | 4.0 | 0.00 | 0.02 | 0.01 | 70 | |
| 20260902112020 | 70 | 2 | 1.0 | 4.0 | 0.00 | 0.02 | 0.01 | 72 | |
| 20260902111021 | 69 | 348 | 1.0 | 3.0 | 0.00 | 0.02 | 0.01 | 72 | |
| 20260902110020 | 68 | 236 | 1.0 | 3.0 | 0.00 | 0.02 | 0.01 | 72 | |
| 20260902105020 | 66 | 153 | 1.0 | 2.0 | 0.00 | 0.02 | 0.01 | 79 | |
| 20260902104028 | 66 | 145 | 1.0 | 4.0 | 0.00 | 0.02 | 0.01 | 80 | |
| 20260902103021 | 66 | 154 | 1.0 | 3.0 | 0.00 | 0.02 | 0.01 | 78 | |
| 20260902102030 | 67 | 146 | 1.0 | 4.0 | 0.00 | 0.02 | 0.01 | 77 | |
| 20260902101022 | 67 | 136 | 1.0 | 3.0 | 0.00 | 0.02 | 0.01 | 78 | |
| 20260902100027 | 67 | 140 | 1.0 | 4.0 | 0.00 | 0.02 | 0.01 | 77 | |
| 20260902095020 | 67 | 173 | 1.0 | 4.0 | 0.00 | 0.02 | 0.01 | 77 | |
| 20260902094033 | 66 | 160 | 1.0 | 4.0 | 0.00 | 0.02 | 0.01 | 77 | |
| 20260902093021 | 65 | 164 | 1.0 | 3.0 | 0.00 | 0.02 | 0.01 | 80 | |
| 20260902092030 | 65 | 168 | 1.0 | 3.0 | 0.00 | 0.02 | 0.01 | 80 | |
| 20260902091020 | 64 | 165 | 1.0 | 4.0 | 0.00 | 0.02 | 0.01 | 81 | |
| 20260902090029 | 65 | 149 | 1.0 | 4.0 | 0.00 | 0.02 | 0.01 | 81 | |
| 20260902085022 | 64 | 166 | 2.0 | 4.0 | 0.00 | 0.02 | 0.01 | 81 | |
| 20260902084025 | 63 | 153 | 2.0 | 4.0 | 0.00 | 0.02 | 0.01 | 85 | |
| 20260902083022 | 62 | 166 | 2.0 | 5.0 | 0.00 | 0.02 | 0.01 | 87 | |
| 20260902082028 | 61 | 164 | 2.0 | 4.0 | 0.00 | 0.02 | 0.01 | 89 | |
| 20260902081020 | 60 | 191 | 1.0 | 3.0 | 0.00 | 0.02 | 0.01 | 91 | |
| 20260902080044 | 59 | 168 | 2.0 | 4.0 | 0.00 | 0.02 | 0.01 | 92 | |
| 20260902075020 | 58 | 159 | 1.0 | 3.0 | 0.00 | 0.02 | 0.01 | 93 | |
| 20260902074028 | 58 | 149 | 1.0 | 3.0 | 0.00 | 0.02 | 0.01 | 95 | |
| 20260902073021 | 57 | 128 | 1.0 | 2.0 | 0.00 | 0.02 | 0.01 | 96 | |
| 20260902072028 | 57 | 141 | 0.0 | 1.0 | 0.00 | 0.02 | 0.01 | 97 | |
| 20260902071022 | 56 | 169 | 0.0 | 2.0 | 0.00 | 0.02 | 0.01 | 98 | |
| 20260902070029 | 56 | 156 | 0.0 | 2.0 | 0.00 | 0.02 | 0.01 | 98 | |
| 20260902065021 | 56 | 153 | 0.0 | 2.0 | 0.00 | 0.02 | 0.01 | 99 | |
| 20260902064029 | 55 | 151 | 0.0 | 2.0 | 0.00 | 0.02 | 0.01 | 99 | |
| 20260902063020 | 54 | 161 | 0.0 | 2.0 | 0.00 | 0.02 | 0.01 | 99 | |
| 20260902062031 | 54 | 137 | 0.0 | 1.0 | 0.00 | 0.02 | 0.01 | 99 | |
| 20260902061022 | 54 | 146 | 0.0 | 1.0 | 0.00 | 0.02 | 0.01 | 99 | |
| 20260902060024 | 54 | 0.0 | 0.0 | 0.00 | 0.02 | 0.01 | 99 | ||
| 20260902055020 | 53 | 148 | 1.0 | 3.0 | 0.00 | 0.02 | 0.01 | 99 | |
| 20260902054020 | 53 | 155 | 0.0 | 2.0 | 0.00 | 0.02 | 0.01 | 99 | |
| 20260902053020 | 53 | 0.0 | 0.0 | 0.00 | 0.02 | 0.01 | 99 | ||
| 20260902052028 | 52 | 152 | 0.0 | 2.0 | 0.00 | 0.02 | 0.01 | 99 | |
| 20260902051022 | 52 | 0.0 | 1.0 | 0.00 | 0.02 | 0.01 | 99 | ||
| 20260902050029 | 52 | 157 | 0.0 | 2.0 | 0.01 | 0.02 | 0.01 | 99 | |
| 20260902045020 | 52 | 182 | 0.0 | 2.0 | 0.01 | 0.02 | 0.01 | 99 | |
| 20260902044028 | 52 | 144 | 1.0 | 2.0 | 0.01 | 0.02 | 0.01 | 99 | |
| 20260902043020 | 51 | 0.0 | 0.0 | 0.01 | 0.02 | 0.01 | 99 | ||
| 20260902042022 | 51 | 166 | 0.0 | 1.0 | 0.01 | 0.02 | 0.01 | 99 | |
| 20260902041020 | 51 | 0.0 | 0.0 | 0.01 | 0.02 | 0.01 | 99 | ||
| 20260902040028 | 51 | 147 | 0.0 | 1.0 | 0.00 | 0.01 | 0.00 | 99 | |
| 20260902035021 | 51 | 0.0 | 0.0 | 0.00 | 0.01 | 0.00 | 99 | ||
| 20260902034030 | 51 | 0.0 | 0.0 | 0.00 | 0.01 | 0.00 | 99 | ||
| 20260902033020 | 50 | 0.0 | 0.0 | 0.00 | 0.01 | 0.00 | 98 | ||
| 20260902032025 | 50 | 0.0 | 0.0 | 0.00 | 0.01 | 0.00 | 98 | ||
| 20260902031020 | 50 | 0.0 | 0.0 | 0.00 | 0.01 | 0.00 | 98 | ||
| 20260902030028 | 51 | 0.0 | 1.0 | 0.00 | 0.01 | 0.00 | 99 | ||
| 20260902025020 | 50 | 0.0 | 0.0 | 0.00 | 0.01 | 0.00 | 98 | ||
| 20260902024027 | 50 | 0.0 | 0.0 | 0.00 | 0.01 | 0.00 | 98 | ||
| 20260902023020 | 50 | 0.0 | 0.0 | 0.00 | 0.01 | 0.00 | 98 | ||
| 20260902022028 | 50 | 0.0 | 0.0 | 0.00 | 0.01 | 0.00 | 98 | ||
| 20260902021020 | 49 | 0.0 | 0.0 | 0.00 | 0.01 | 0.00 | 98 | ||
| 20260902020032 | 49 | 0.0 | 0.0 | 0.00 | 0.01 | 0.00 | 98 | ||
| 20260902015023 | 48 | 351 | 0.0 | 2.0 | 0.00 | 0.01 | 0.00 | 98 | |
| 20260902014029 | 48 | 352 | 1.0 | 2.0 | 0.00 | 0.01 | 0.00 | 97 | |
| 20260902013020 | 50 | 359 | 1.0 | 2.0 | 0.00 | 0.01 | 0.00 | 97 | |
| 20260902012028 | 51 | 0.0 | 0.0 | 0.00 | 0.01 | 0.00 | 98 | ||
| 20260902011021 | 51 | 237 | 0.0 | 1.0 | 0.00 | 0.01 | 0.00 | 98 | |
| 20260902010030 | 50 | 0.0 | 0.0 | 0.00 | 0.01 | 0.00 | 98 | ||
| 20260902005022 | 50 | 0.0 | 0.0 | 0.00 | 0.01 | 0.00 | 98 | ||
| 20260902004028 | 50 | 0.0 | 0.0 | 0.00 | 0.01 | 0.00 | 98 | ||
| 20260902003020 | 50 | 0.0 | 0.0 | 0.00 | 0.01 | 0.00 | 98 | ||
| 20260902002021 | 50 | 0.0 | 0.0 | 0.00 | 0.01 | 0.00 | 98 | ||
| 20260902001020 | 50 | 0.0 | 0.0 | 0.00 | 0.01 | 0.00 | 97 | ||
| 20260902000029 | 50 | 0.0 | 0.0 | 0.00 | 0.01 | 0.00 | 97 | ||
| 20260901235020 | 50 | 0.0 | 0.0 | 0.00 | 0.01 | 0.00 | 97 | ||
| 20260901234028 | 50 | 0.0 | 0.0 | 0.00 | 0.01 | 0.00 | 97 | ||
| 20260901233020 | 51 | 0.0 | 0.0 | 0.00 | 0.01 | 0.00 | 97 | ||
| 20260901232027 | 51 | 0.0 | 0.0 | 0.00 | 0.01 | 0.00 | 97 | ||
| 20260901231020 | 51 | 0.0 | 1.0 | 0.00 | 0.01 | 0.00 | 97 | ||
| 20260901230025 | 51 | 0.0 | 0.0 | 0.00 | 0.01 | 0.00 | 97 | ||
| 20260901225020 | 51 | 0.0 | 0.0 | 0.00 | 0.01 | 0.00 | 97 | ||
| 20260901224028 | 52 | 349 | 0.0 | 2.0 | 0.00 | 0.01 | 0.00 | 97 | |
| 20260901223020 | 52 | 0.0 | 0.0 | 0.00 | 0.01 | 0.00 | 97 | ||
| 20260901222028 | 52 | 0.0 | 0.0 | 0.00 | 0.01 | 0.00 | 96 | ||
| 20260901221024 | 53 | 0.0 | 0.0 | 0.00 | 0.01 | 0.00 | 96 | ||
| 20260901220028 | 53 | 0.0 | 0.0 | 0.00 | 0.01 | 0.00 | 96 | ||
| 20260901215020 | 53 | 0.0 | 1.0 | 0.00 | 0.01 | 0.01 | 96 | ||
| 20260901214029 | 54 | 0.0 | 0.0 | 0.00 | 0.01 | 0.01 | 96 | ||
| 20260901213022 | 54 | 0.0 | 0.0 | 0.00 | 0.01 | 0.01 | 96 | ||
| 20260901212021 | 54 | 0.0 | 0.0 | 0.00 | 0.01 | 0.01 | 96 | ||
| 20260901211020 | 54 | 0.0 | 0.0 | 0.00 | 0.01 | 0.01 | 95 | ||
| 20260901210028 | 55 | 339 | 0.0 | 2.0 | 0.00 | 0.01 | 0.01 | 95 | |
| 20260901205020 | 55 | 0.0 | 0.0 | 0.00 | 0.01 | 0.01 | 95 | ||
| 20260901204030 | 56 | 0.0 | 0.0 | 0.00 | 0.01 | 0.01 | 95 | ||
| 20260901203020 | 55 | 0.0 | 0.0 | 0.00 | 0.01 | 0.01 | 94 | ||
| 20260901202028 | 56 | 0.0 | 0.0 | 0.00 | 0.01 | 0.01 | 94 | ||
| 20260901201021 | 57 | 357 | 0.0 | 1.0 | 0.00 | 0.01 | 0.01 | 94 | |
| 20260901200031 | 57 | 0.0 | 0.0 | 0.00 | 0.01 | 0.01 | 93 | ||
| 20260901195019 | 57 | 0.0 | 0.0 | 0.00 | 0.01 | 0.01 | 92 | ||
| 20260901194032 | 58 | 0.0 | 0.0 | 0.00 | 0.01 | 0.01 | 91 | ||
| 20260901193022 | 58 | 0.0 | 0.0 | 0.00 | 0.01 | 0.01 | 90 | ||
| 20260901192028 | 59 | 0.0 | 0.0 | 0.00 | 0.01 | 0.01 | 90 | ||
| 20260901191020 | 59 | 0.0 | 0.0 | 0.00 | 0.01 | 0.01 | 89 | ||
| 20260901190022 | 60 | 0.0 | 0.0 | 0.00 | 0.01 | 0.01 | 88 | ||
| 20260901185022 | 61 | 347 | 0.0 | 2.0 | 0.00 | 0.01 | 0.01 | 86 | |
| 20260901184028 | 62 | 348 | 0.0 | 1.0 | 0.00 | 0.01 | 0.01 | 84 | |
| 20260901183020 | 62 | 357 | 1.0 | 3.0 | 0.00 | 0.01 | 0.01 | 84 | |
| 20260901182031 | 63 | 357 | 1.0 | 2.0 | 0.00 | 0.01 | 0.01 | 83 | |
| 20260901181021 | 63 | 343 | 1.0 | 2.0 | 0.00 | 0.01 | 0.01 | 82 | |
| 20260901180029 | 63 | 334 | 1.0 | 2.0 | 0.00 | 0.01 | 0.01 | 82 | |
| 20260901175020 | 63 | 333 | 1.0 | 3.0 | 0.00 | 0.01 | 0.01 | 82 | |
| 20260901174028 | 63 | 0.0 | 0.0 | 0.00 | 0.01 | 0.01 | 83 | ||
| 20260901173019 | 64 | 202 | 0.0 | 2.0 | 0.00 | 0.01 | 0.01 | 84 | |
| 20260901172029 | 64 | 0.0 | 0.0 | 0.00 | 0.01 | 0.01 | 84 | ||
| 20260901171022 | 63 | 120 | 0.0 | 1.0 | 0.00 | 0.01 | 0.01 | 84 | |
| 20260901170029 | 63 | 360 | 0.0 | 1.0 | 0.00 | 0.01 | 0.01 | 84 | |
| 20260901165020 | 63 | 11 | 0.0 | 2.0 | 0.00 | 0.01 | 0.01 | 84 | |
| 20260901164027 | 64 | 0.0 | 1.0 | 0.00 | 0.01 | 0.01 | 84 | ||
| 20260901163022 | 64 | 0.0 | 0.0 | 0.00 | 0.01 | 0.01 | 81 | ||
| 20260901162028 | 64 | 344 | 0.0 | 2.0 | 0.00 | 0.01 | 0.01 | 80 | |
| 20260901161020 | 64 | 336 | 0.0 | 2.0 | 0.00 | 0.01 | 0.01 | 80 | |
| 20260901160024 | 64 | 341 | 1.0 | 2.0 | 0.00 | 0.01 | 0.01 | 81 |